| time (UTC) | temp C | wind direction | speed KPH | gust KPH | rain 1hr cm | rain 24hr cm | rain mn cm | humidity % | barometer mb |
| 20260507155634 | 18 | 181 | 4.8 | 11.3 | 0.00 | 0.00 | 0.00 | 45 | 1013.2 |
| 20260507155134 | 18 | 175 | 4.8 | 9.7 | 0.00 | 0.00 | 0.00 | 48 | 1013.2 |
| 20260507154635 | 17 | 330 | 4.8 | 9.7 | 0.00 | 0.00 | 0.00 | 48 | 1013.5 |
| 20260507154137 | 17 | 75 | 6.4 | 11.3 | 0.00 | 0.00 | 0.00 | 47 | 1013.5 |
| 20260507153634 | 17 | 273 | 6.4 | 11.3 | 0.00 | 0.00 | 0.00 | 48 | 1013.5 |
| 20260507153135 | 16 | 183 | 4.8 | 11.3 | 0.00 | 0.00 | 0.00 | 50 | 1013.5 |
| 20260507152634 | 16 | 227 | 4.8 | 12.9 | 0.00 | 0.00 | 0.00 | 51 | 1013.5 |
| 20260507152134 | 15 | 33 | 3.2 | 17.7 | 0.00 | 0.00 | 0.00 | 54 | 1013.5 |
| 20260507151635 | 15 | 260 | 8.0 | 14.5 | 0.00 | 0.00 | 0.00 | 52 | 1013.5 |
| 20260507151135 | 15 | 29 | 6.4 | 11.3 | 0.00 | 0.00 | 0.00 | 55 | 1013.5 |
| 20260507150637 | 14 | 90 | 4.8 | 11.3 | 0.00 | 0.00 | 0.00 | 58 | 1013.5 |
| 20260507150135 | 13 | 153 | 6.4 | 11.3 | 0.00 | 0.00 | 0.00 | 57 | 1013.5 |
| 20260507145636 | 13 | 141 | 8.0 | 14.5 | 0.00 | 0.00 | 0.00 | 59 | 1013.5 |
| 20260507145137 | 13 | 176 | 6.4 | 14.5 | 0.00 | 0.00 | 0.00 | 59 | 1013.9 |
| 20260507144636 | 12 | 214 | 4.8 | 11.3 | 0.00 | 0.00 | 0.00 | 62 | 1013.9 |
| 20260507144137 | 12 | 71 | 4.8 | 16.1 | 0.00 | 0.00 | 0.00 | 63 | 1013.9 |
| 20260507143634 | 12 | 227 | 6.4 | 11.3 | 0.00 | 0.00 | 0.00 | 62 | 1013.9 |
| 20260507143136 | 11 | 210 | 6.4 | 11.3 | 0.00 | 0.00 | 0.00 | 63 | 1013.9 |
| 20260507142637 | 11 | 233 | 4.8 | 12.9 | 0.00 | 0.00 | 0.00 | 66 | 1013.9 |
| 20260507142136 | 11 | 296 | 6.4 | 12.9 | 0.00 | 0.00 | 0.00 | 65 | 1013.9 |
| 20260507141634 | 10 | 313 | 6.4 | 9.7 | 0.00 | 0.00 | 0.00 | 66 | 1013.9 |
| 20260507141135 | 10 | 180 | 6.4 | 12.9 | 0.00 | 0.00 | 0.00 | 68 | 1013.9 |
| 20260507140635 | 10 | 183 | 3.2 | 14.5 | 0.00 | 0.00 | 0.00 | 70 | 1013.9 |
| 20260507140135 | 9 | 141 | 4.8 | 11.3 | 0.00 | 0.00 | 0.00 | 71 | 1014.2 |
| 20260507135638 | 9 | 170 | 6.4 | 11.3 | 0.00 | 0.00 | 0.00 | 71 | 1013.9 |
| 20260507135138 | 8 | 151 | 3.2 | 12.9 | 0.00 | 0.00 | 0.00 | 73 | 1014.2 |
| 20260507134633 | 8 | 201 | 6.4 | 9.7 | 0.00 | 0.00 | 0.00 | 74 | 1014.2 |
| 20260507134133 | 8 | 273 | 4.8 | 8.0 | 0.00 | 0.00 | 0.00 | 74 | 1014.2 |
| 20260507133637 | 7 | 94 | 4.8 | 11.3 | 0.00 | 0.00 | 0.00 | 76 | 1013.9 |
| 20260507133139 | 7 | 172 | 6.4 | 11.3 | 0.00 | 0.00 | 0.00 | 77 | 1014.2 |
| 20260507132636 | 7 | 193 | 4.8 | 8.0 | 0.00 | 0.00 | 0.00 | 79 | 1014.2 |
| 20260507132136 | 6 | 211 | 4.8 | 9.7 | 0.00 | 0.00 | 0.00 | 81 | 1014.2 |
| 20260507131636 | 6 | 185 | 4.8 | 8.0 | 0.00 | 0.00 | 0.00 | 83 | 1014.2 |
| 20260507131137 | 5 | 139 | 4.8 | 9.7 | 0.00 | 0.00 | 0.00 | 84 | 1014.2 |
| 20260507130634 | 5 | 184 | 4.8 | 11.3 | 0.00 | 0.00 | 0.00 | 86 | 1014.6 |
| 20260507130137 | 5 | 147 | 8.0 | 17.7 | 0.00 | 0.00 | 0.00 | 88 | 1014.2 |
| 20260507125637 | 4 | 228 | 9.7 | 17.7 | 0.00 | 0.00 | 0.00 | 89 | 1014.2 |
| 20260507125137 | 3 | 254 | 8.0 | 16.1 | 0.00 | 0.00 | 0.00 | 90 | 1014.6 |
| 20260507124635 | 3 | 123 | 9.7 | 16.1 | 0.00 | 0.00 | 0.00 | 90 | 1014.6 |
| 20260507124135 | 3 | 133 | 11.3 | 16.1 | 0.00 | 0.00 | 0.00 | 91 | 1014.6 |
| 20260507123637 | 3 | 84 | 14.5 | 25.7 | 0.00 | 0.00 | 0.00 | 91 | 1014.6 |
| 20260507123135 | 2 | 166 | 17.7 | 25.7 | 0.00 | 0.00 | 0.00 | 92 | 1014.6 |
| 20260507122636 | 2 | 99 | 14.5 | 19.3 | 0.00 | 0.00 | 0.00 | 93 | 1014.6 |
| 20260507122136 | 2 | 201 | 12.9 | 16.1 | 0.00 | 0.00 | 0.00 | 93 | 1014.6 |
| 20260507121636 | 2 | 135 | 17.7 | 22.5 | 0.00 | 0.00 | 0.00 | 93 | 1014.6 |
| 20260507121133 | 2 | 146 | 16.1 | 25.7 | 0.00 | 0.00 | 0.00 | 93 | 1014.6 |
| 20260507120637 | 2 | 349 | 9.7 | 16.1 | 0.00 | 0.00 | 0.00 | 93 | 1014.6 |
| 20260507120012 | 1 | 167 | 16.1 | 22.5 | 0.00 | 0.00 | 0.00 | 93 | 1014.6 |
| 20260507115316 | 1 | 129 | 11.3 | 17.7 | 0.00 | 0.00 | 0.00 | 93 | 1014.9 |
| 20260507114634 | 2 | 162 | 17.7 | 27.4 | 0.00 | 0.00 | 0.00 | 93 | 1014.9 |
| 20260507114133 | 2 | 238 | 22.5 | 27.4 | 0.00 | 0.00 | 0.00 | 93 | 1014.9 |
| 20260507113633 | 2 | 135 | 19.3 | 22.5 | 0.00 | 0.00 | 0.00 | 94 | 1014.9 |
| 20260507113135 | 1 | 195 | 8.0 | 27.4 | 0.00 | 0.00 | 0.00 | 94 | 1014.9 |
| 20260507112634 | 1 | 183 | 14.5 | 24.1 | 0.00 | 0.00 | 0.00 | 94 | 1014.9 |
| 20260507112134 | 1 | 99 | 11.3 | 20.9 | 0.00 | 0.00 | 0.00 | 94 | 1014.9 |
| 20260507111633 | 1 | 71 | 11.3 | 17.7 | 0.00 | 0.00 | 0.00 | 94 | 1014.9 |
| 20260507111134 | 2 | 136 | 16.1 | 19.3 | 0.00 | 0.00 | 0.00 | 94 | 1015.2 |
| 20260507110633 | 2 | 186 | 12.9 | 16.1 | 0.00 | 0.00 | 0.00 | 94 | 1015.2 |
| 20260507110134 | 2 | 133 | 12.9 | 24.1 | 0.00 | 0.00 | 0.00 | 94 | 1015.2 |
| 20260507105633 | 2 | 132 | 14.5 | 24.1 | 0.00 | 0.00 | 0.00 | 94 | 1015.2 |
| 20260507105133 | 2 | 92 | 11.3 | 12.9 | 0.00 | 0.00 | 0.00 | 94 | 1015.2 |
| 20260507104634 | 2 | 158 | 6.4 | 20.9 | 0.00 | 0.00 | 0.00 | 94 | 1015.2 |
| 20260507104134 | 2 | 247 | 12.9 | 20.9 | 0.00 | 0.00 | 0.00 | 94 | 1015.6 |
| 20260507103633 | 2 | 141 | 11.3 | 20.9 | 0.00 | 0.00 | 0.00 | 94 | 1015.6 |
| 20260507103134 | 2 | 126 | 16.1 | 20.9 | 0.00 | 0.00 | 0.00 | 93 | 1015.6 |
| 20260507102633 | 2 | 178 | 14.5 | 25.7 | 0.00 | 0.00 | 0.00 | 93 | 1015.6 |
| 20260507102136 | 2 | 145 | 11.3 | 25.7 | 0.00 | 0.00 | 0.00 | 93 | 1015.9 |
| 20260507101633 | 2 | 293 | 16.1 | 25.7 | 0.00 | 0.00 | 0.00 | 93 | 1015.9 |
| 20260507101134 | 2 | 169 | 11.3 | 20.9 | 0.00 | 0.00 | 0.00 | 93 | 1015.9 |
| 20260507100635 | 2 | 115 | 16.1 | 16.1 | 0.00 | 0.00 | 0.00 | 93 | 1015.9 |
| 20260507100134 | 2 | 82 | 9.7 | 14.5 | 0.00 | 0.00 | 0.00 | 92 | 1015.9 |
| 20260507095633 | 2 | 127 | 8.0 | 14.5 | 0.00 | 0.00 | 0.00 | 92 | 1016.3 |
| 20260507095134 | 2 | 141 | 6.4 | 19.3 | 0.00 | 0.00 | 0.00 | 92 | 1016.3 |
| 20260507094633 | 2 | 94 | 11.3 | 16.1 | 0.00 | 0.00 | 0.00 | 92 | 1015.9 |
| 20260507094133 | 2 | 335 | 8.0 | 16.1 | 0.00 | 0.00 | 0.00 | 92 | 1015.9 |
| 20260507093635 | 2 | 234 | 8.0 | 14.5 | 0.00 | 0.00 | 0.00 | 92 | 1016.3 |
| 20260507093134 | 2 | 126 | 9.7 | 16.1 | 0.00 | 0.00 | 0.00 | 92 | 1016.3 |
| 20260507092633 | 2 | 149 | 9.7 | 16.1 | 0.00 | 0.00 | 0.00 | 92 | 1015.9 |
| 20260507092135 | 2 | 193 | 8.0 | 16.1 | 0.00 | 0.00 | 0.00 | 92 | 1015.9 |
| 20260507091634 | 2 | 127 | 14.5 | 16.1 | 0.00 | 0.00 | 0.00 | 91 | 1015.9 |
| 20260507091133 | 2 | 35 | 8.0 | 9.7 | 0.00 | 0.00 | 0.00 | 91 | 1016.3 |
| 20260507090634 | 3 | 151 | 8.0 | 9.7 | 0.00 | 0.00 | 0.00 | 91 | 1016.3 |
| 20260507090133 | 3 | 57 | 6.4 | 11.3 | 0.00 | 0.00 | 0.00 | 91 | 1016.6 |
| 20260507085635 | 3 | 113 | 9.7 | 11.3 | 0.00 | 0.00 | 0.00 | 91 | 1016.6 |
| 20260507085133 | 3 | 65 | 6.4 | 12.9 | 0.00 | 0.00 | 0.00 | 91 | 1016.6 |
| 20260507084634 | 3 | 127 | 8.0 | 16.1 | 0.00 | 0.00 | 0.00 | 91 | 1016.6 |
| 20260507084134 | 3 | 72 | 8.0 | 16.1 | 0.00 | 0.00 | 0.00 | 90 | 1016.6 |
| 20260507083635 | 3 | 165 | 11.3 | 16.1 | 0.00 | 0.00 | 0.00 | 91 | 1016.9 |
| 20260507083134 | 3 | 143 | 8.0 | 14.5 | 0.00 | 0.00 | 0.00 | 90 | 1016.9 |
| 20260507082633 | 3 | 296 | 3.2 | 12.9 | 0.00 | 0.00 | 0.00 | 91 | 1016.9 |
| 20260507082133 | 3 | 347 | 4.8 | 12.9 | 0.00 | 0.00 | 0.00 | 91 | 1016.9 |
| 20260507081633 | 3 | 78 | 8.0 | 14.5 | 0.00 | 0.00 | 0.00 | 91 | 1016.9 |
| 20260507081133 | 3 | 215 | 8.0 | 17.7 | 0.00 | 0.00 | 0.00 | 91 | 1016.9 |
| 20260507080635 | 3 | 25 | 11.3 | 16.1 | 0.00 | 0.00 | 0.00 | 91 | 1016.9 |
| 20260507080133 | 3 | 93 | 3.2 | 17.7 | 0.00 | 0.00 | 0.00 | 92 | 1016.9 |
| 20260507075634 | 3 | 169 | 6.4 | 22.5 | 0.00 | 0.00 | 0.00 | 92 | 1016.9 |
| 20260507075134 | 3 | 314 | 11.3 | 22.5 | 0.00 | 0.00 | 0.00 | 92 | 1016.9 |
| 20260507074633 | 3 | 154 | 9.7 | 17.7 | 0.00 | 0.00 | 0.00 | 93 | 1016.9 |
| 20260507074137 | 3 | 176 | 4.8 | 12.9 | 0.00 | 0.00 | 0.00 | 93 | 1017.3 |
| 20260507073633 | 3 | 281 | 4.8 | 12.9 | 0.00 | 0.00 | 0.00 | 93 | 1017.3 |
| 20260507073133 | 3 | 223 | 8.0 | 9.7 | 0.00 | 0.00 | 0.00 | 93 | 1017.6 |
| 20260507072633 | 3 | 160 | 3.2 | 14.5 | 0.00 | 0.00 | 0.00 | 93 | 1017.6 |
| 20260507072133 | 3 | 90 | 3.2 | 9.7 | 0.00 | 0.00 | 0.00 | 92 | 1017.6 |
| 20260507071633 | 3 | 91 | 1.6 | 8.0 | 0.00 | 0.00 | 0.00 | 92 | 1017.9 |
| 20260507071134 | 3 | 244 | 4.8 | 11.3 | 0.00 | 0.00 | 0.00 | 92 | 1017.9 |
| 20260507070635 | 3 | 120 | 4.8 | 11.3 | 0.00 | 0.00 | 0.00 | 93 | 1017.9 |
| 20260507070133 | 3 | 152 | 6.4 | 9.7 | 0.00 | 0.00 | 0.00 | 93 | 1017.9 |
| 20260507065634 | 3 | 157 | 8.0 | 11.3 | 0.00 | 0.00 | 0.00 | 93 | 1017.9 |
| 20260507065136 | 3 | 53 | 6.4 | 11.3 | 0.00 | 0.00 | 0.00 | 93 | 1017.9 |
| 20260507064636 | 3 | 193 | 6.4 | 11.3 | 0.00 | 0.00 | 0.00 | 93 | 1017.9 |
| 20260507064133 | 3 | 183 | 4.8 | 11.3 | 0.00 | 0.00 | 0.00 | 93 | 1018.3 |
| 20260507063633 | 3 | 166 | 3.2 | 11.3 | 0.00 | 0.00 | 0.00 | 93 | 1018.3 |
| 20260507063134 | 3 | 183 | 6.4 | 11.3 | 0.00 | 0.00 | 0.00 | 93 | 1017.9 |
| 20260507062634 | 3 | 98 | 3.2 | 9.7 | 0.00 | 0.00 | 0.00 | 93 | 1018.3 |
| 20260507062133 | 3 | 148 | 6.4 | 9.7 | 0.00 | 0.00 | 0.00 | 93 | 1018.3 |
| 20260507061635 | 3 | 46 | 3.2 | 6.4 | 0.00 | 0.00 | 0.00 | 93 | 1018.3 |
| 20260507061134 | 3 | 173 | 1.6 | 6.4 | 0.00 | 0.00 | 0.00 | 93 | 1018.3 |
| 20260507060633 | 3 | 138 | 3.2 | 11.3 | 0.00 | 0.00 | 0.00 | 93 | 1018.3 |
| 20260507060136 | 3 | 183 | 3.2 | 9.7 | 0.00 | 0.00 | 0.00 | 93 | 1018.3 |
| 20260507055633 | 3 | 152 | 4.8 | 11.3 | 0.00 | 0.00 | 0.00 | 93 | 1018.3 |
| 20260507055133 | 3 | 197 | 3.2 | 6.4 | 0.00 | 0.00 | 0.00 | 93 | 1018.6 |
| 20260507054634 | 3 | 151 | 3.2 | 6.4 | 0.00 | 0.00 | 0.00 | 92 | 1018.6 |
| 20260507054134 | 3 | 77 | 4.8 | 8.0 | 0.00 | 0.00 | 0.00 | 92 | 1018.6 |
| 20260507053634 | 3 | 165 | 4.8 | 6.4 | 0.00 | 0.00 | 0.00 | 92 | 1018.6 |
| 20260507053133 | 4 | 156 | 3.2 | 8.0 | 0.00 | 0.00 | 0.00 | 92 | 1018.6 |
| 20260507052633 | 4 | 148 | 3.2 | 8.0 | 0.00 | 0.00 | 0.00 | 92 | 1018.6 |
| 20260507052133 | 4 | 98 | 1.6 | 6.4 | 0.00 | 0.00 | 0.00 | 92 | 1018.6 |
| 20260507051634 | 4 | 112 | 1.6 | 4.8 | 0.00 | 0.00 | 0.00 | 92 | 1018.6 |
| 20260507051134 | 4 | 162 | 1.6 | 6.4 | 0.00 | 0.00 | 0.00 | 92 | 1018.6 |
| 20260507050633 | 4 | 161 | 3.2 | 8.0 | 0.00 | 0.00 | 0.00 | 92 | 1018.6 |
| 20260507050133 | 4 | 98 | 3.2 | 4.8 | 0.00 | 0.00 | 0.71 | 91 | 1018.6 |
| 20260507045633 | 4 | 172 | 1.6 | 6.4 | 0.00 | 0.00 | 0.71 | 91 | 1018.6 |
| 20260507045133 | 4 | 99 | 3.2 | 6.4 | 0.00 | 0.00 | 0.71 | 91 | 1018.6 |
| 20260507044634 | 4 | 103 | 1.6 | 6.4 | 0.00 | 0.00 | 0.71 | 91 | 1018.6 |
| 20260507044133 | 4 | 208 | 1.6 | 6.4 | 0.00 | 0.00 | 0.71 | 91 | 1018.6 |
| 20260507043634 | 5 | 113 | 1.6 | 6.4 | 0.00 | 0.00 | 0.71 | 90 | 1018.6 |
| 20260507043133 | 5 | 85 | 0.0 | 4.8 | 0.00 | 0.00 | 0.71 | 90 | 1019.0 |
| 20260507042634 | 5 | 104 | 1.6 | 6.4 | 0.00 | 0.00 | 0.71 | 90 | 1019.0 |
| 20260507042135 | 5 | 131 | 1.6 | 4.8 | 0.00 | 0.00 | 0.71 | 90 | 1019.0 |
| 20260507041633 | 5 | 96 | 3.2 | 3.2 | 0.00 | 0.00 | 0.71 | 90 | 1019.0 |
| 20260507041134 | 5 | 129 | 3.2 | 6.4 | 0.00 | 0.00 | 0.71 | 90 | 1019.0 |
| 20260507040635 | 5 | 139 | 1.6 | 9.7 | 0.00 | 0.00 | 0.71 | 90 | 1019.0 |
| 20260507040133 | 5 | 157 | 3.2 | 6.4 | 0.00 | 0.00 | 0.71 | 90 | 1019.0 |
| 20260507035633 | 5 | 151 | 1.6 | 3.2 | 0.00 | 0.00 | 0.71 | 90 | 1019.0 |
| 20260507035136 | 5 | 179 | 0.0 | 8.0 | 0.00 | 0.00 | 0.71 | 90 | 1019.0 |
| 20260507034633 | 5 | 111 | 1.6 | 8.0 | 0.00 | 0.00 | 0.71 | 90 | 1019.0 |
| 20260507034133 | 6 | 100 | 1.6 | 6.4 | 0.00 | 0.00 | 0.71 | 89 | 1019.0 |
| 20260507033634 | 6 | 81 | 3.2 | 6.4 | 0.00 | 0.00 | 0.71 | 89 | 1019.0 |
| 20260507033134 | 6 | 10 | 3.2 | 6.4 | 0.00 | 0.00 | 0.71 | 89 | 1019.0 |
| 20260507032634 | 6 | 344 | 1.6 | 4.8 | 0.00 | 0.00 | 0.71 | 89 | 1019.0 |
| 20260507032133 | 6 | 58 | 1.6 | 4.8 | 0.00 | 0.00 | 0.71 | 89 | 1019.0 |
| 20260507031634 | 6 | 33 | 1.6 | 4.8 | 0.00 | 0.00 | 0.71 | 88 | 1019.0 |
| 20260507031133 | 6 | 85 | 0.0 | 4.8 | 0.00 | 0.00 | 0.71 | 88 | 1019.0 |
| 20260507030633 | 6 | 76 | 0.0 | 3.2 | 0.00 | 0.00 | 0.71 | 87 | 1019.0 |
| 20260507030134 | 6 | 1 | 1.6 | 6.4 | 0.00 | 0.00 | 0.71 | 87 | 1019.0 |
| 20260507025634 | 6 | 125 | 3.2 | 6.4 | 0.00 | 0.00 | 0.71 | 87 | 1018.6 |
| 20260507025135 | 7 | 17 | 1.6 | 4.8 | 0.00 | 0.00 | 0.71 | 86 | 1018.6 |
| 20260507024633 | 7 | 285 | 1.6 | 4.8 | 0.00 | 0.00 | 0.71 | 85 | 1018.6 |
| 20260507024134 | 7 | 108 | 0.0 | 1.6 | 0.00 | 0.00 | 0.71 | 84 | 1018.6 |
| 20260507023634 | 7 | 355 | 1.6 | 4.8 | 0.00 | 0.00 | 0.71 | 84 | 1018.6 |
| 20260507023134 | 7 | 272 | 4.8 | 8.0 | 0.00 | 0.00 | 0.71 | 84 | 1018.6 |
| 20260507022633 | 7 | 81 | 0.0 | 8.0 | 0.00 | 0.00 | 0.71 | 84 | 1018.6 |
| 20260507022134 | 7 | 9 | 1.6 | 4.8 | 0.00 | 0.00 | 0.71 | 84 | 1018.6 |
| 20260507021634 | 7 | 301 | 1.6 | 4.8 | 0.00 | 0.00 | 0.71 | 84 | 1018.6 |
| 20260507021133 | 7 | 184 | 1.6 | 4.8 | 0.00 | 0.00 | 0.71 | 84 | 1018.6 |
| 20260507020633 | 7 | 239 | 0.0 | 4.8 | 0.00 | 0.00 | 0.71 | 83 | 1018.6 |
| 20260507020133 | 7 | 75 | 1.6 | 6.4 | 0.00 | 0.00 | 0.71 | 83 | 1018.6 |
| 20260507015634 | 7 | 89 | 1.6 | 6.4 | 0.00 | 0.00 | 0.71 | 83 | 1018.6 |
| 20260507015134 | 7 | 312 | 1.6 | 4.8 | 0.00 | 0.00 | 0.71 | 82 | 1018.6 |
| 20260507014635 | 8 | 236 | 1.6 | 6.4 | 0.00 | 0.00 | 0.71 | 81 | 1018.3 |
| 20260507014133 | 8 | 127 | 3.2 | 4.8 | 0.00 | 0.00 | 0.71 | 80 | 1018.3 |
| 20260507013634 | 8 | 214 | 3.2 | 6.4 | 0.00 | 0.00 | 0.71 | 79 | 1018.3 |
| 20260507013134 | 8 | 39 | 3.2 | 8.0 | 0.00 | 0.00 | 0.71 | 78 | 1018.3 |
| 20260507012634 | 8 | 326 | 3.2 | 8.0 | 0.00 | 0.00 | 0.71 | 79 | 1018.3 |
| 20260507012133 | 8 | 205 | 3.2 | 6.4 | 0.00 | 0.00 | 0.71 | 78 | 1018.3 |
| 20260507011635 | 8 | 358 | 3.2 | 9.7 | 0.00 | 0.00 | 0.71 | 77 | 1017.9 |
| 20260507011135 | 9 | 32 | 1.6 | 4.8 | 0.00 | 0.00 | 0.71 | 76 | 1018.3 |
| 20260507010633 | 9 | 61 | 1.6 | 4.8 | 0.00 | 0.00 | 0.71 | 76 | 1018.3 |
| 20260507010133 | 9 | 84 | 1.6 | 9.7 | 0.00 | 0.00 | 0.71 | 74 | 1018.3 |
| 20260507005634 | 9 | 75 | 4.8 | 8.0 | 0.00 | 0.00 | 0.71 | 72 | 1018.3 |
| 20260507005133 | 10 | 284 | 4.8 | 12.9 | 0.00 | 0.00 | 0.71 | 72 | 1018.3 |
| 20260507004633 | 10 | 261 | 4.8 | 12.9 | 0.00 | 0.00 | 0.71 | 72 | 1018.3 |
| 20260507004133 | 10 | 306 | 6.4 | 16.1 | 0.00 | 0.00 | 0.71 | 71 | 1018.3 |
| 20260507003634 | 10 | 80 | 6.4 | 9.7 | 0.00 | 0.00 | 0.71 | 72 | 1018.3 |
| 20260507003134 | 10 | 305 | 4.8 | 9.7 | 0.00 | 0.00 | 0.71 | 70 | 1018.3 |
| 20260507002634 | 10 | 353 | 1.6 | 11.3 | 0.00 | 0.00 | 0.71 | 73 | 1018.3 |
| 20260507002136 | 10 | 321 | 3.2 | 11.3 | 0.00 | 0.00 | 0.71 | 72 | 1018.3 |
| 20260507001634 | 10 | 344 | 3.2 | 12.9 | 0.00 | 0.00 | 0.71 | 72 | 1018.3 |
| 20260507001135 | 10 | 98 | 3.2 | 12.9 | 0.00 | 0.00 | 0.71 | 73 | 1018.3 |
| 20260507000634 | 10 | 191 | 9.7 | 14.5 | 0.00 | 0.00 | 0.71 | 73 | 1018.3 |
| 20260507000133 | 10 | 310 | 4.8 | 12.9 | 0.00 | 0.00 | 0.71 | 75 | 1018.3 |
| 20260506235633 | 9 | 59 | 8.0 | 12.9 | 0.00 | 0.00 | 0.71 | 74 | 1018.3 |
| 20260506235133 | 9 | 291 | 4.8 | 12.9 | 0.00 | 0.00 | 0.71 | 77 | 1018.3 |
| 20260506234633 | 9 | 295 | 8.0 | 12.9 | 0.00 | 0.00 | 0.71 | 77 | 1018.3 |
| 20260506234134 | 9 | 331 | 6.4 | 9.7 | 0.00 | 0.00 | 0.71 | 78 | 1018.3 |
| 20260506233633 | 8 | 47 | 6.4 | 11.3 | 0.00 | 0.00 | 0.71 | 78 | 1018.3 |
| 20260506233133 | 8 | 276 | 6.4 | 14.5 | 0.00 | 0.00 | 0.71 | 79 | 1018.3 |
| 20260506232633 | 8 | 317 | 9.7 | 20.9 | 0.00 | 0.00 | 0.71 | 78 | 1018.3 |
| 20260506232133 | 8 | 281 | 12.9 | 22.5 | 0.00 | 0.00 | 0.71 | 75 | 1018.3 |
| 20260506231634 | 9 | 300 | 14.5 | 22.5 | 0.00 | 0.00 | 0.71 | 73 | 1018.3 |
| 20260506231133 | 10 | 284 | 12.9 | 17.7 | 0.00 | 0.00 | 0.71 | 71 | 1018.3 |
| 20260506230634 | 11 | 294 | 9.7 | 17.7 | 0.00 | 0.00 | 0.71 | 67 | 1018.3 |
| 20260506230134 | 12 | 334 | 4.8 | 8.0 | 0.00 | 0.00 | 0.71 | 59 | 1018.3 |
| 20260506225633 | 12 | 291 | 6.4 | 9.7 | 0.00 | 0.00 | 0.71 | 57 | 1017.9 |
| 20260506225133 | 12 | 280 | 1.6 | 6.4 | 0.00 | 0.00 | 0.71 | 58 | 1017.9 |
| 20260506224634 | 12 | 239 | 3.2 | 6.4 | 0.00 | 0.00 | 0.71 | 57 | 1017.9 |
| 20260506224133 | 12 | 4 | 1.6 | 9.7 | 0.00 | 0.00 | 0.71 | 56 | 1017.9 |
| 20260506223633 | 12 | 329 | 4.8 | 9.7 | 0.00 | 0.00 | 0.71 | 56 | 1017.9 |
| 20260506223134 | 12 | 295 | 4.8 | 8.0 | 0.00 | 0.00 | 0.71 | 57 | 1017.9 |
| 20260506222634 | 12 | 60 | 1.6 | 4.8 | 0.00 | 0.00 | 0.71 | 60 | 1017.9 |
| 20260506222133 | 12 | 167 | 3.2 | 8.0 | 0.00 | 0.00 | 0.71 | 62 | 1017.9 |
| 20260506221634 | 12 | 281 | 4.8 | 8.0 | 0.00 | 0.00 | 0.71 | 66 | 1018.3 |
| 20260506221133 | 12 | 323 | 4.8 | 6.4 | 0.00 | 0.00 | 0.71 | 60 | 1018.3 |
| 20260506220636 | 12 | 110 | 1.6 | 4.8 | 0.00 | 0.00 | 0.71 | 62 | 1018.3 |
| 20260506220133 | 12 | 12 | 1.6 | 3.2 | 0.00 | 0.00 | 0.71 | 60 | 1018.3 |
| 20260506215633 | 12 | 261 | 3.2 | 6.4 | 0.00 | 0.00 | 0.71 | 61 | 1018.3 |
| 20260506215134 | 12 | 61 | 0.0 | 4.8 | 0.00 | 0.00 | 0.71 | 59 | 1018.3 |
| 20260506214636 | 12 | 168 | 1.6 | 4.8 | 0.00 | 0.00 | 0.71 | 57 | 1018.3 |
| 20260506214136 | 12 | 182 | 3.2 | 8.0 | 0.00 | 0.00 | 0.71 | 61 | 1018.3 |
| 20260506213633 | 11 | 104 | 4.8 | 9.7 | 0.00 | 0.00 | 0.71 | 60 | 1018.3 |
| 20260506213133 | 12 | 279 | 3.2 | 9.7 | 0.00 | 0.00 | 0.71 | 59 | 1018.6 |
| 20260506212634 | 12 | 318 | 4.8 | 9.7 | 0.00 | 0.00 | 0.71 | 58 | 1018.6 |
| 20260506212133 | 12 | 298 | 1.6 | 8.0 | 0.00 | 0.00 | 0.71 | 61 | 1018.6 |
| 20260506211635 | 12 | 148 | 1.6 | 8.0 | 0.00 | 0.00 | 0.71 | 61 | 1018.6 |
| 20260506211133 | 11 | 269 | 4.8 | 12.9 | 0.00 | 0.00 | 0.71 | 60 | 1018.6 |
| 20260506210633 | 11 | 289 | 4.8 | 11.3 | 0.00 | 0.00 | 0.71 | 63 | 1018.6 |
| 20260506210134 | 11 | 339 | 8.0 | 9.7 | 0.00 | 0.00 | 0.71 | 63 | 1018.6 |
| 20260506205634 | 11 | 10 | 3.2 | 9.7 | 0.00 | 0.00 | 0.71 | 62 | 1019.0 |
| 20260506205134 | 11 | 257 | 4.8 | 9.7 | 0.00 | 0.00 | 0.71 | 62 | 1019.0 |
| 20260506204633 | 12 | 149 | 4.8 | 9.7 | 0.00 | 0.00 | 0.71 | 58 | 1019.0 |
| 20260506203647 | 12 | 43 | 3.2 | 4.8 | 0.00 | 0.00 | 0.71 | 59 | 1019.0 |
| 20260506203135 | 12 | 188 | 1.6 | 9.7 | 0.00 | 0.00 | 0.71 | 58 | 1019.0 |
| 20260506202633 | 12 | 297 | 3.2 | 4.8 | 0.00 | 0.00 | 0.71 | 60 | 1019.0 |
| 20260506202135 | 12 | 353 | 3.2 | 6.4 | 0.00 | 0.00 | 0.71 | 59 | 1019.0 |
| 20260506201637 | 12 | 177 | 3.2 | 6.4 | 0.00 | 0.00 | 0.71 | 59 | 1019.0 |
| 20260506201133 | 12 | 112 | 1.6 | 4.8 | 0.00 | 0.00 | 0.71 | 60 | 1019.0 |
| 20260506200633 | 13 | 147 | 1.6 | 12.9 | 0.00 | 0.00 | 0.71 | 60 | 1019.0 |
| 20260506200134 | 12 | 181 | 9.7 | 12.9 | 0.00 | 0.00 | 0.71 | 59 | 1019.0 |
| 20260506195634 | 12 | 154 | 6.4 | 9.7 | 0.00 | 0.00 | 0.71 | 62 | 1019.0 |
| 20260506195134 | 12 | 96 | 3.2 | 9.7 | 0.00 | 0.00 | 0.71 | 62 | 1019.3 |
| 20260506194633 | 12 | 155 | 4.8 | 9.7 | 0.00 | 0.00 | 0.71 | 62 | 1019.3 |
| 20260506194134 | 12 | 138 | 3.2 | 11.3 | 0.00 | 0.00 | 0.71 | 64 | 1019.3 |
| 20260506193635 | 12 | 242 | 4.8 | 12.9 | 0.00 | 0.00 | 0.71 | 62 | 1019.3 |
| 20260506193133 | 11 | 109 | 4.8 | 8.0 | 0.00 | 0.00 | 0.71 | 67 | 1019.3 |
| 20260506192634 | 11 | 196 | 6.4 | 8.0 | 0.00 | 0.00 | 0.71 | 66 | 1019.3 |
| 20260506192134 | 11 | 103 | 6.4 | 11.3 | 0.00 | 0.00 | 0.71 | 68 | 1019.3 |
| 20260506191633 | 11 | 139 | 6.4 | 9.7 | 0.00 | 0.00 | 0.71 | 70 | 1019.3 |
| 20260506191135 | 11 | 125 | 4.8 | 9.7 | 0.00 | 0.00 | 0.71 | 68 | 1019.3 |
| 20260506190633 | 10 | 187 | 1.6 | 8.0 | 0.00 | 0.00 | 0.71 | 71 | 1019.3 |
| 20260506190136 | 10 | 190 | 4.8 | 6.4 | 0.00 | 0.00 | 0.71 | 71 | 1019.6 |
| 20260506185148 | 10 | 67 | 3.2 | 6.4 | 0.00 | 0.00 | 0.71 | 73 | 1019.6 |
| 20260506184643 | 10 | 104 | 3.2 | 6.4 | 0.00 | 0.00 | 0.71 | 73 | 1019.6 |
| 20260506184134 | 10 | 150 | 3.2 | 6.4 | 0.00 | 0.00 | 0.71 | 75 | 1019.6 |
| 20260506183633 | 10 | 80 | 4.8 | 6.4 | 0.00 | 0.00 | 0.71 | 73 | 1019.6 |
| 20260506183133 | 9 | 161 | 3.2 | 6.4 | 0.00 | 0.00 | 0.71 | 76 | 1020.0 |
| 20260506182636 | 9 | 148 | 3.2 | 8.0 | 0.00 | 0.00 | 0.71 | 77 | 1020.0 |
| 20260506182135 | 9 | 127 | 3.2 | 6.4 | 0.00 | 0.00 | 0.71 | 78 | 1020.0 |
| 20260506181635 | 8 | 151 | 1.6 | 6.4 | 0.00 | 0.00 | 0.71 | 81 | 1020.0 |
| 20260506181134 | 8 | 96 | 3.2 | 6.4 | 0.00 | 0.00 | 0.71 | 79 | 1020.0 |
| 20260506180633 | 8 | 138 | 3.2 | 4.8 | 0.00 | 0.00 | 0.71 | 80 | 1020.0 |
| 20260506180135 | 8 | 103 | 1.6 | 6.4 | 0.00 | 0.00 | 0.71 | 80 | 1020.0 |
| 20260506175633 | 8 | 102 | 0.0 | 4.8 | 0.00 | 0.00 | 0.71 | 82 | 1020.0 |
| 20260506175134 | 8 | 100 | 0.0 | 9.7 | 0.00 | 0.00 | 0.71 | 81 | 1020.0 |
| 20260506174634 | 8 | 121 | 3.2 | 9.7 | 0.00 | 0.00 | 0.71 | 79 | 1020.0 |
| 20260506174136 | 8 | 121 | 3.2 | 6.4 | 0.00 | 0.00 | 0.71 | 79 | 1020.0 |
| 20260506173633 | 8 | 123 | 3.2 | 9.7 | 0.00 | 0.00 | 0.71 | 79 | 1020.0 |
| 20260506173136 | 9 | 135 | 3.2 | 4.8 | 0.00 | 0.00 | 0.71 | 76 | 1020.0 |
| 20260506172634 | 9 | 88 | 3.2 | 8.0 | 0.00 | 0.00 | 0.71 | 77 | 1020.0 |
| 20260506172134 | 10 | 92 | 1.6 | 8.0 | 0.00 | 0.00 | 0.71 | 75 | 1020.0 |
| 20260506171634 | 10 | 139 | 1.6 | 8.0 | 0.00 | 0.00 | 0.71 | 76 | 1020.0 |
| 20260506171133 | 10 | 108 | 3.2 | 6.4 | 0.00 | 0.00 | 0.71 | 76 | 1019.6 |
| 20260506170634 | 10 | 110 | 1.6 | 6.4 | 0.00 | 0.00 | 0.71 | 77 | 1019.6 |
| 20260506170134 | 10 | 178 | 3.2 | 4.8 | 0.00 | 0.00 | 0.71 | 76 | 1019.6 |
| 20260506165634 | 10 | 84 | 3.2 | 6.4 | 0.00 | 0.00 | 0.71 | 77 | 1019.6 |
| 20260506165134 | 9 | 111 | 1.6 | 6.4 | 0.00 | 0.00 | 0.71 | 77 | 1019.6 |
| 20260506164634 | 9 | 76 | 1.6 | 8.0 | 0.00 | 0.00 | 0.71 | 80 | 1019.6 |
| 20260506164134 | 9 | 156 | 3.2 | 8.0 | 0.00 | 0.00 | 0.71 | 79 | 1019.6 |
| 20260506163634 | 9 | 86 | 1.6 | 12.9 | 0.00 | 0.00 | 0.71 | 77 | 1019.6 |
| 20260506163133 | 8 | 121 | 6.4 | 12.9 | 0.00 | 0.00 | 0.71 | 76 | 1019.6 |
| 20260506162634 | 9 | 141 | 1.6 | 8.0 | 0.00 | 0.00 | 0.71 | 81 | 1019.6 |
| 20260506162134 | 8 | 101 | 1.6 | 6.4 | 0.00 | 0.00 | 0.71 | 82 | 1019.6 |
| 20260506161633 | 8 | 146 | 1.6 | 6.4 | 0.00 | 0.00 | 0.71 | 83 | 1019.6 |
| 20260506161134 | 8 | 175 | 3.2 | 6.4 | 0.00 | 0.00 | 0.71 | 80 | 1019.6 |
| 20260506160633 | 8 | 86 | 3.2 | 6.4 | 0.00 | 0.00 | 0.71 | 81 | 1019.6 |
| 20260506160133 | 8 | 87 | 1.6 | 4.8 | 0.00 | 0.00 | 0.71 | 80 | 1019.6 |